Time,TemperatureF,DewpointF,PressureIn,WindDirection,WindDirectionDegrees,WindSpeedMPH,WindSpeedGustMPH,Humidity,HourlyPrecipIn,Conditions,Clouds,dailyrainin,SoftwareType,DateUTC
2013-08-06 00:04:00,63.9,59.9,29.96,NNE,30,0.0,0.0,87,0.00,,,0.00,meteobridge,2013-08-06 04:04:00,
2013-08-06 00:09:00,64.0,60.1,29.96,NNE,30,0.0,0.0,87,0.00,,,0.00,meteobridge,2013-08-06 04:09:00,
2013-08-06 00:14:00,64.0,60.1,29.96,NNE,30,0.0,0.0,87,0.00,,,0.00,meteobridge,2013-08-06 04:14:00,
2013-08-06 00:19:00,64.0,60.1,29.96,NNE,30,0.0,0.0,87,0.00,,,0.00,meteobridge,2013-08-06 04:19:00,
2013-08-06 00:24:00,64.2,60.3,29.96,NNE,30,0.0,0.0,87,0.00,,,0.00,meteobridge,2013-08-06 04:24:00,
2013-08-06 00:30:00,64.0,59.7,29.97,NNE,30,0.0,0.0,86,0.00,,,0.00,meteobridge,2013-08-06 04:30:00,
2013-08-06 00:35:00,64.0,59.7,29.97,NNE,30,0.0,0.0,86,0.00,,,0.00,meteobridge,2013-08-06 04:35:00,
2013-08-06 00:40:00,64.0,59.7,29.97,NNE,30,0.0,0.0,86,0.00,,,0.00,meteobridge,2013-08-06 04:40:00,
2013-08-06 00:45:00,64.0,59.7,29.97,NNE,30,0.0,0.0,86,0.00,,,0.00,meteobridge,2013-08-06 04:45:00,
2013-08-06 00:50:00,64.2,59.9,29.97,NNE,30,0.0,0.0,86,0.00,,,0.00,meteobridge,2013-08-06 04:50:00,
2013-08-06 00:55:00,64.2,59.9,29.97,NNE,30,0.0,0.0,86,0.00,,,0.00,meteobridge,2013-08-06 04:55:00,
2013-08-06 01:01:00,64.2,59.9,29.97,NNE,30,0.0,0.0,86,0.00,,,0.00,meteobridge,2013-08-06 05:01:00,
2013-08-06 01:06:00,64.2,59.5,29.97,NNE,30,0.0,0.0,85,0.00,,,0.00,meteobridge,2013-08-06 05:06:00,
2013-08-06 01:11:00,64.2,59.5,29.97,NNE,30,0.0,0.0,85,0.00,,,0.00,meteobridge,2013-08-06 05:11:00,
2013-08-06 01:16:00,64.2,59.5,29.97,NNE,30,0.0,0.0,85,0.00,,,0.00,meteobridge,2013-08-06 05:16:00,
2013-08-06 01:21:00,64.2,59.5,29.97,NNE,30,0.0,0.0,85,0.00,,,0.00,meteobridge,2013-08-06 05:21:00,
2013-08-06 01:26:00,64.2,59.5,29.97,NNE,30,0.0,0.0,85,0.00,,,0.00,meteobridge,2013-08-06 05:26:00,
2013-08-06 01:32:00,64.0,59.7,29.97,NNE,30,0.0,0.0,86,0.00,,,0.00,meteobridge,2013-08-06 05:32:00,
2013-08-06 01:37:00,63.9,59.5,29.97,NNE,30,0.0,0.0,86,0.00,,,0.00,meteobridge,2013-08-06 05:37:00,
2013-08-06 01:42:00,63.7,59.7,29.97,NNE,30,0.0,0.0,87,0.00,,,0.00,meteobridge,2013-08-06 05:42:00,
2013-08-06 01:47:00,63.7,59.7,29.97,NNE,30,0.0,0.0,87,0.00,,,0.00,meteobridge,2013-08-06 05:47:00,
2013-08-06 01:52:00,63.5,59.5,29.97,NNE,30,0.0,0.0,87,0.00,,,0.00,meteobridge,2013-08-06 05:52:00,
2013-08-06 01:57:00,63.5,59.9,29.97,NNE,30,0.0,0.0,88,0.00,,,0.00,meteobridge,2013-08-06 05:57:00,
2013-08-06 02:03:00,63.5,59.9,29.96,NNE,30,0.0,0.0,88,0.00,,,0.00,meteobridge,2013-08-06 06:03:00,
2013-08-06 02:08:00,63.5,59.9,29.96,NNE,30,0.0,0.0,88,0.00,,,0.00,meteobridge,2013-08-06 06:08:00,
2013-08-06 02:13:00,63.5,59.9,29.96,NNE,30,0.0,0.0,88,0.00,,,0.00,meteobridge,2013-08-06 06:13:00,
2013-08-06 02:18:00,63.5,59.9,29.96,NNE,30,0.0,0.0,88,0.00,,,0.00,meteobridge,2013-08-06 06:18:00,
2013-08-06 02:23:00,63.5,59.9,29.96,NNE,30,0.0,0.0,88,0.00,,,0.00,meteobridge,2013-08-06 06:23:00,
2013-08-06 02:28:00,63.5,59.9,29.96,NNE,30,0.0,0.0,88,0.00,,,0.00,meteobridge,2013-08-06 06:28:00,
2013-08-06 02:34:00,63.5,59.9,29.96,NNE,30,0.0,0.0,88,0.00,,,0.00,meteobridge,2013-08-06 06:34:00,
2013-08-06 02:39:00,63.5,59.9,29.96,NNE,30,0.0,0.0,88,0.00,,,0.00,meteobridge,2013-08-06 06:39:00,
2013-08-06 02:44:00,63.7,60.1,29.95,NNE,30,0.0,0.0,88,0.00,,,0.00,meteobridge,2013-08-06 06:44:00,
2013-08-06 02:49:00,63.7,60.1,29.95,NNE,30,0.0,0.0,88,0.00,,,0.00,meteobridge,2013-08-06 06:49:00,
2013-08-06 02:54:00,63.7,60.1,29.95,NNE,30,0.0,0.0,88,0.00,,,0.00,meteobridge,2013-08-06 06:54:00,
2013-08-06 03:00:00,63.9,60.3,29.95,NNE,30,0.0,0.0,88,0.00,,,0.00,meteobridge,2013-08-06 07:00:00,
2013-08-06 03:05:00,63.9,60.3,29.95,NNE,30,0.0,0.0,88,0.00,,,0.00,meteobridge,2013-08-06 07:05:00,
2013-08-06 03:10:00,64.0,60.1,29.95,NNE,30,0.0,0.0,87,0.00,,,0.00,meteobridge,2013-08-06 07:10:00,
2013-08-06 03:15:00,64.0,60.1,29.94,NNE,30,0.0,0.0,87,0.00,,,0.00,meteobridge,2013-08-06 07:15:00,
2013-08-06 03:20:00,64.0,60.4,29.94,NNE,30,0.0,0.0,88,0.00,,,0.00,meteobridge,2013-08-06 07:20:00,
2013-08-06 03:26:00,64.0,60.4,29.94,NNE,30,0.0,0.0,88,0.00,,,0.00,meteobridge,2013-08-06 07:26:00,
2013-08-06 03:31:00,64.0,60.4,29.95,NNE,30,0.0,0.0,88,0.00,,,0.00,meteobridge,2013-08-06 07:31:00,
2013-08-06 03:36:00,63.9,60.3,29.95,NNE,30,0.0,0.0,88,0.00,,,0.00,meteobridge,2013-08-06 07:36:00,
2013-08-06 03:41:00,63.9,60.3,29.95,NNE,30,0.0,0.0,88,0.00,,,0.00,meteobridge,2013-08-06 07:41:00,
2013-08-06 03:46:00,63.7,60.1,29.95,NNE,30,0.0,0.0,88,0.00,,,0.00,meteobridge,2013-08-06 07:46:00,
2013-08-06 03:51:00,63.7,60.4,29.95,NNE,30,0.0,0.0,89,0.00,,,0.00,meteobridge,2013-08-06 07:51:00,
2013-08-06 03:57:00,63.7,60.4,29.95,NNE,30,0.0,0.0,89,0.00,,,0.00,meteobridge,2013-08-06 07:57:00,
2013-08-06 04:02:00,63.7,60.4,29.94,NNE,30,0.0,0.0,89,0.00,,,0.00,meteobridge,2013-08-06 08:02:00,
2013-08-06 04:07:00,63.5,60.3,29.94,NNE,30,0.0,0.0,89,0.00,,,0.00,meteobridge,2013-08-06 08:07:00,
2013-08-06 04:12:00,63.7,60.6,29.94,NNE,30,0.0,0.0,90,0.00,,,0.00,meteobridge,2013-08-06 08:12:00,
2013-08-06 04:17:00,63.7,60.6,29.96,NNE,30,0.0,0.0,90,0.00,,,0.00,meteobridge,2013-08-06 08:17:00,
2013-08-06 04:22:00,63.7,60.6,29.96,NNE,30,0.0,0.0,90,0.00,,,0.00,meteobridge,2013-08-06 08:22:00,
2013-08-06 04:28:00,63.7,60.6,29.96,NNE,30,0.0,0.0,90,0.00,,,0.00,meteobridge,2013-08-06 08:28:00,
2013-08-06 04:33:00,63.9,60.8,29.95,NNE,30,0.0,0.0,90,0.00,,,0.00,meteobridge,2013-08-06 08:33:00,
2013-08-06 04:38:00,63.9,60.8,29.95,NNE,30,0.0,0.0,90,0.00,,,0.00,meteobridge,2013-08-06 08:38:00,
2013-08-06 04:43:00,63.9,60.8,29.95,NNE,30,0.0,0.0,90,0.00,,,0.00,meteobridge,2013-08-06 08:43:00,
2013-08-06 04:48:00,64.0,61.3,29.95,NNE,30,0.0,0.0,91,0.00,,,0.00,meteobridge,2013-08-06 08:48:00,
2013-08-06 04:53:00,64.0,61.3,29.95,NNE,30,0.0,0.0,91,0.00,,,0.00,meteobridge,2013-08-06 08:53:00,
2013-08-06 04:58:00,64.0,61.3,29.95,NNE,30,0.0,0.0,91,0.00,,,0.00,meteobridge,2013-08-06 08:58:00,
2013-08-06 05:04:00,64.0,61.3,29.95,NNE,30,0.0,0.0,91,0.00,,,0.00,meteobridge,2013-08-06 09:04:00,
2013-08-06 05:09:00,64.0,61.3,29.95,NNE,30,0.0,0.0,91,0.00,,,0.00,meteobridge,2013-08-06 09:09:00,
2013-08-06 05:14:00,64.0,61.3,29.95,NNE,30,0.0,0.0,91,0.00,,,0.00,meteobridge,2013-08-06 09:14:00,
2013-08-06 05:19:00,63.9,61.2,29.95,NNE,30,0.0,0.0,91,0.00,,,0.00,meteobridge,2013-08-06 09:19:00,
2013-08-06 05:24:00,63.9,61.2,29.95,NNE,30,0.0,0.0,91,0.00,,,0.00,meteobridge,2013-08-06 09:24:00,
2013-08-06 05:30:00,63.9,61.2,29.94,NNE,30,0.0,0.0,91,0.00,,,0.00,meteobridge,2013-08-06 09:30:00,
2013-08-06 05:35:00,63.7,61.0,29.94,NNE,30,0.0,0.0,91,0.00,,,0.00,meteobridge,2013-08-06 09:35:00,
2013-08-06 05:40:00,63.7,61.0,29.94,NNE,30,0.0,0.0,91,0.00,,,0.00,meteobridge,2013-08-06 09:40:00,
2013-08-06 05:45:00,63.7,61.0,29.94,NNE,30,0.0,0.0,91,0.00,,,0.00,meteobridge,2013-08-06 09:45:00,
2013-08-06 05:50:00,63.9,61.2,29.94,NNE,30,0.0,0.0,91,0.00,,,0.00,meteobridge,2013-08-06 09:50:00,
2013-08-06 05:55:00,64.0,61.3,29.94,NNE,30,0.0,0.0,91,0.00,,,0.00,meteobridge,2013-08-06 09:55:00,
2013-08-06 06:01:00,64.0,60.8,29.94,NNE,30,0.0,0.0,89,0.00,,,0.00,meteobridge,2013-08-06 10:01:00,
2013-08-06 06:06:00,64.0,60.4,29.94,NNE,30,0.0,0.0,88,0.00,,,0.00,meteobridge,2013-08-06 10:06:00,
2013-08-06 06:11:00,63.9,59.5,29.94,NNE,30,0.0,0.0,86,0.00,,,0.00,meteobridge,2013-08-06 10:11:00,
2013-08-06 06:16:00,64.0,58.8,29.94,NNE,30,0.0,0.0,83,0.00,,,0.00,meteobridge,2013-08-06 10:16:00,
2013-08-06 06:21:00,64.2,58.3,29.94,NE,40,0.0,0.0,81,0.00,,,0.00,meteobridge,2013-08-06 10:21:00,
2013-08-06 06:26:00,64.2,57.9,29.94,NE,40,0.0,0.0,80,0.00,,,0.00,meteobridge,2013-08-06 10:26:00,
2013-08-06 06:31:00,64.2,57.6,29.95,NE,40,0.0,0.0,79,0.00,,,0.00,meteobridge,2013-08-06 10:31:00,
2013-08-06 06:36:00,64.2,57.9,29.95,NE,40,0.0,0.0,80,0.00,,,0.00,meteobridge,2013-08-06 10:36:00,
2013-08-06 06:41:00,64.2,58.3,29.95,NE,40,0.0,0.0,81,0.00,,,0.00,meteobridge,2013-08-06 10:41:00,
2013-08-06 06:47:00,64.0,58.5,29.95,NE,40,0.0,0.9,82,0.00,,,0.00,meteobridge,2013-08-06 10:47:00,
2013-08-06 06:52:00,63.7,58.1,29.95,NE,40,0.0,0.0,82,0.00,,,0.00,meteobridge,2013-08-06 10:52:00,
2013-08-06 06:57:00,63.5,57.9,29.95,ENE,65,0.0,2.0,82,0.00,,,0.00,meteobridge,2013-08-06 10:57:00,
2013-08-06 07:03:00,63.7,57.7,29.96,ENE,65,0.0,0.0,81,0.00,,,0.00,meteobridge,2013-08-06 11:03:00,
2013-08-06 07:08:00,63.5,57.9,29.96,ENE,65,0.0,0.0,82,0.00,,,0.00,meteobridge,2013-08-06 11:08:00,
2013-08-06 07:13:00,63.3,58.1,29.96,ENE,65,0.0,0.9,83,0.00,,,0.00,meteobridge,2013-08-06 11:13:00,
2013-08-06 07:18:00,63.1,58.3,29.96,ENE,68,0.0,2.0,84,0.00,,,0.00,meteobridge,2013-08-06 11:18:00,
2013-08-06 07:23:00,63.1,58.3,29.96,ENE,68,0.0,0.0,84,0.00,,,0.00,meteobridge,2013-08-06 11:23:00,
2013-08-06 07:28:00,63.1,57.9,29.96,ENE,68,0.0,0.0,83,0.00,,,0.00,meteobridge,2013-08-06 11:28:00,
2013-08-06 07:34:00,63.1,57.9,29.97,ENE,68,0.0,0.9,83,0.00,,,0.00,meteobridge,2013-08-06 11:34:00,
2013-08-06 07:39:00,63.3,58.1,29.97,ENE,68,0.0,0.0,83,0.00,,,0.00,meteobridge,2013-08-06 11:39:00,
2013-08-06 07:44:00,63.3,58.1,29.97,ENE,68,0.0,0.0,83,0.00,,,0.00,meteobridge,2013-08-06 11:44:00,
2013-08-06 07:49:00,63.5,58.3,29.97,ENE,68,0.0,0.0,83,0.00,,,0.00,meteobridge,2013-08-06 11:49:00,
2013-08-06 07:54:00,63.7,58.5,29.97,ENE,68,0.0,0.0,83,0.00,,,0.00,meteobridge,2013-08-06 11:54:00,
2013-08-06 08:00:00,63.9,58.3,29.98,ENE,68,0.0,0.0,82,0.00,,,0.00,meteobridge,2013-08-06 12:00:00,
2013-08-06 08:05:00,64.2,58.6,29.98,ENE,68,0.0,0.0,82,0.00,,,0.00,meteobridge,2013-08-06 12:05:00,
2013-08-06 08:10:00,64.6,58.6,29.98,ENE,68,0.0,0.0,81,0.00,,,0.00,meteobridge,2013-08-06 12:10:00,
2013-08-06 08:15:00,64.8,58.8,29.99,ENE,68,0.0,0.0,81,0.00,,,0.00,meteobridge,2013-08-06 12:15:00,
2013-08-06 08:20:00,64.9,58.6,29.99,ENE,68,0.0,0.0,80,0.00,,,0.00,meteobridge,2013-08-06 12:20:00,
2013-08-06 08:26:00,65.3,59.4,29.99,ENE,68,0.0,0.0,81,0.00,,,0.00,meteobridge,2013-08-06 12:26:00,
2013-08-06 08:31:00,65.5,59.2,29.98,ENE,68,0.0,0.0,80,0.00,,,0.00,meteobridge,2013-08-06 12:31:00,
2013-08-06 08:36:00,65.7,58.6,29.98,ENE,68,0.0,0.9,78,0.00,,,0.00,meteobridge,2013-08-06 12:36:00,
2013-08-06 08:41:00,66.0,59.0,29.98,ENE,68,0.0,0.0,78,0.00,,,0.00,meteobridge,2013-08-06 12:41:00,
2013-08-06 08:46:00,66.4,59.0,29.99,ENE,68,0.0,2.0,77,0.00,,,0.00,meteobridge,2013-08-06 12:46:00,
2013-08-06 08:51:00,66.6,58.8,29.99,ENE,68,0.0,0.0,76,0.00,,,0.00,meteobridge,2013-08-06 12:51:00,
2013-08-06 08:56:00,67.1,58.8,29.99,ENE,68,0.0,0.0,75,0.00,,,0.00,meteobridge,2013-08-06 12:56:00,
2013-08-06 09:01:00,67.3,58.6,29.98,ESE,109,0.9,2.9,74,0.00,,,0.00,meteobridge,2013-08-06 13:01:00,
2013-08-06 09:06:00,67.6,59.0,29.98,ESE,109,0.9,2.0,74,0.00,,,0.00,meteobridge,2013-08-06 13:06:00,
2013-08-06 09:11:00,67.8,58.8,29.98,ESE,109,0.0,0.9,73,0.00,,,0.00,meteobridge,2013-08-06 13:11:00,
2013-08-06 09:17:00,68.4,59.4,29.98,ESE,109,2.0,2.0,73,0.00,,,0.00,meteobridge,2013-08-06 13:17:00,
2013-08-06 09:22:00,68.5,59.2,29.98,East,100,2.0,2.9,72,0.00,,,0.00,meteobridge,2013-08-06 13:22:00,
2013-08-06 09:27:00,68.9,59.5,29.98,East,100,0.0,0.0,72,0.00,,,0.00,meteobridge,2013-08-06 13:27:00,
2013-08-06 09:32:00,69.3,59.5,29.99,East,100,0.0,2.9,71,0.00,,,0.00,meteobridge,2013-08-06 13:32:00,
2013-08-06 09:37:00,69.6,59.0,29.99,East,95,0.9,2.9,69,0.00,,,0.00,meteobridge,2013-08-06 13:37:00,
2013-08-06 09:42:00,70.0,59.4,29.99,East,95,0.0,4.0,69,0.00,,,0.00,meteobridge,2013-08-06 13:42:00,
2013-08-06 09:47:00,70.0,59.4,29.99,NNE,23,2.0,6.9,69,0.00,,,0.00,meteobridge,2013-08-06 13:47:00,
2013-08-06 09:52:00,70.2,59.5,29.99,East,85,0.9,2.9,69,0.00,,,0.00,meteobridge,2013-08-06 13:52:00,
2013-08-06 09:57:00,70.3,59.7,29.99,East,88,0.0,2.9,69,0.00,,,0.00,meteobridge,2013-08-06 13:57:00,
2013-08-06 10:02:00,70.2,59.9,29.99,ENE,68,2.0,2.9,70,0.00,,,0.00,meteobridge,2013-08-06 14:02:00,
2013-08-06 10:07:00,70.3,59.7,29.99,East,88,2.0,2.9,69,0.00,,,0.00,meteobridge,2013-08-06 14:07:00,
2013-08-06 10:12:00,70.9,59.7,29.99,East,88,2.9,2.9,68,0.00,,,0.00,meteobridge,2013-08-06 14:12:00,
2013-08-06 10:17:00,70.9,60.3,29.99,East,88,2.0,6.0,69,0.00,,,0.00,meteobridge,2013-08-06 14:17:00,
2013-08-06 10:22:00,71.4,60.8,29.99,NE,47,0.0,4.0,69,0.00,,,0.00,meteobridge,2013-08-06 14:22:00,
2013-08-06 10:27:00,72.1,61.0,29.99,SSE,147,2.0,4.9,68,0.00,,,0.00,meteobridge,2013-08-06 14:27:00,
2013-08-06 10:32:00,72.3,61.2,29.98,SE,130,0.0,4.0,68,0.00,,,0.00,meteobridge,2013-08-06 14:32:00,
2013-08-06 10:37:00,72.9,61.7,29.98,SE,137,4.0,4.0,68,0.00,,,0.00,meteobridge,2013-08-06 14:37:00,
2013-08-06 10:43:00,72.9,61.7,29.98,SE,134,0.0,4.0,68,0.00,,,0.00,meteobridge,2013-08-06 14:43:00,
2013-08-06 10:48:00,73.2,62.1,29.98,ESE,109,2.0,6.0,68,0.00,,,0.00,meteobridge,2013-08-06 14:48:00,
2013-08-06 10:53:00,73.2,61.2,29.98,ESE,116,0.0,6.0,66,0.00,,,0.00,meteobridge,2013-08-06 14:53:00,
2013-08-06 10:58:00,73.2,60.8,29.98,ESE,109,0.9,4.9,65,0.00,,,0.00,meteobridge,2013-08-06 14:58:00,
2013-08-06 11:03:00,73.6,61.9,29.99,SE,130,2.9,4.9,67,0.00,,,0.00,meteobridge,2013-08-06 15:03:00,
2013-08-06 11:08:00,73.6,61.2,29.99,ENE,68,2.0,4.9,65,0.00,,,0.00,meteobridge,2013-08-06 15:08:00,
2013-08-06 11:13:00,73.6,61.5,29.99,SSE,157,0.0,2.9,66,0.00,,,0.00,meteobridge,2013-08-06 15:13:00,
2013-08-06 11:18:00,73.9,61.9,29.98,ESE,110,4.0,6.0,66,0.00,,,0.00,meteobridge,2013-08-06 15:18:00,
2013-08-06 11:23:00,74.5,61.9,29.98,SE,124,2.0,6.0,65,0.00,,,0.00,meteobridge,2013-08-06 15:23:00,
2013-08-06 11:28:00,74.8,61.0,29.98,ESE,102,0.9,6.0,62,0.00,,,0.00,meteobridge,2013-08-06 15:28:00,
2013-08-06 11:33:00,75.4,61.5,29.97,East,88,2.9,6.0,62,0.00,,,0.00,meteobridge,2013-08-06 15:33:00,
2013-08-06 11:38:00,75.7,61.9,29.97,ENE,73,2.0,4.9,62,0.00,,,0.00,meteobridge,2013-08-06 15:38:00,
2013-08-06 11:43:00,76.3,61.3,29.97,East,92,0.9,4.9,60,0.00,,,0.00,meteobridge,2013-08-06 15:43:00,
2013-08-06 11:48:00,76.6,61.7,29.97,SSE,152,0.9,6.0,60,0.00,,,0.00,meteobridge,2013-08-06 15:48:00,
2013-08-06 11:53:00,77.0,62.1,29.97,East,82,0.9,6.0,60,0.00,,,0.00,meteobridge,2013-08-06 15:53:00,
2013-08-06 11:58:00,77.2,62.6,29.97,East,82,2.0,2.9,61,0.00,,,0.00,meteobridge,2013-08-06 15:58:00,
2013-08-06 12:04:00,77.5,63.0,29.97,SSE,148,0.0,2.0,61,0.00,,,0.00,meteobridge,2013-08-06 16:04:00,
2013-08-06 12:09:00,77.9,63.0,29.97,SE,124,0.0,4.9,60,0.00,,,0.00,meteobridge,2013-08-06 16:09:00,
2013-08-06 12:14:00,78.1,63.5,29.97,North,1,2.0,2.9,61,0.00,,,0.00,meteobridge,2013-08-06 16:14:00,
2013-08-06 12:19:00,78.4,63.3,29.97,ESE,123,0.9,4.0,60,0.00,,,0.00,meteobridge,2013-08-06 16:19:00,
2013-08-06 12:24:00,78.3,62.8,29.97,NNE,28,2.9,6.0,59,0.00,,,0.00,meteobridge,2013-08-06 16:24:00,
2013-08-06 12:29:00,78.3,62.8,29.96,SW,222,2.0,4.9,59,0.00,,,0.00,meteobridge,2013-08-06 16:29:00,
2013-08-06 12:34:00,79.0,63.9,29.96,SSW,200,0.0,0.9,60,0.00,,,0.00,meteobridge,2013-08-06 16:34:00,
2013-08-06 12:39:00,79.2,64.0,29.96,ESE,117,2.9,4.9,60,0.00,,,0.00,meteobridge,2013-08-06 16:39:00,
2013-08-06 12:44:00,79.0,63.5,29.96,SSE,148,2.9,6.0,59,0.00,,,0.00,meteobridge,2013-08-06 16:44:00,
2013-08-06 12:49:00,79.0,64.4,29.96,ESE,117,0.0,0.9,61,0.00,,,0.00,meteobridge,2013-08-06 16:49:00,
2013-08-06 12:54:00,79.5,64.4,29.96,SE,145,2.0,6.0,60,0.00,,,0.00,meteobridge,2013-08-06 16:54:00,
2013-08-06 12:59:00,79.9,64.2,29.95,North,1,2.0,2.9,59,0.00,,,0.00,meteobridge,2013-08-06 16:59:00,
2013-08-06 13:04:00,79.9,63.3,29.95,East,90,0.9,4.9,57,0.00,,,0.00,meteobridge,2013-08-06 17:04:00,
2013-08-06 13:10:00,80.1,63.5,29.95,SE,127,2.0,6.0,57,0.00,,,0.00,meteobridge,2013-08-06 17:10:00,
2013-08-06 13:20:00,80.2,63.1,29.94,NE,56,0.9,6.0,56,0.00,,,0.00,meteobridge,2013-08-06 17:20:00,
2013-08-06 13:25:00,80.2,64.0,29.94,ENE,71,0.0,4.0,58,0.00,,,0.00,meteobridge,2013-08-06 17:25:00,
2013-08-06 13:30:00,80.4,61.7,29.94,SSE,154,0.9,2.9,53,0.00,,,0.00,meteobridge,2013-08-06 17:30:00,
2013-08-06 13:35:00,81.0,64.2,29.94,SSE,154,0.0,2.9,57,0.00,,,0.00,meteobridge,2013-08-06 17:35:00,
2013-08-06 13:40:00,81.1,63.0,29.94,SE,130,0.9,4.0,54,0.00,,,0.00,meteobridge,2013-08-06 17:40:00,
2013-08-06 13:45:00,81.9,65.1,29.93,SSE,151,0.0,6.0,57,0.00,,,0.00,meteobridge,2013-08-06 17:45:00,
2013-08-06 13:50:00,82.0,65.3,29.93,South,176,2.0,4.9,57,0.00,,,0.00,meteobridge,2013-08-06 17:50:00,
2013-08-06 13:55:00,82.0,63.7,29.93,SE,124,0.0,0.9,54,0.00,,,0.00,meteobridge,2013-08-06 17:55:00,
2013-08-06 14:00:00,82.2,64.9,29.93,ESE,114,0.9,2.0,56,0.00,,,0.00,meteobridge,2013-08-06 18:00:00,
2013-08-06 14:05:00,82.4,64.0,29.93,SSE,164,0.9,4.9,54,0.00,,,0.00,meteobridge,2013-08-06 18:05:00,
2013-08-06 14:11:00,82.8,63.9,29.93,SSW,192,0.0,6.0,53,0.00,,,0.00,meteobridge,2013-08-06 18:11:00,
2013-08-06 14:16:00,82.9,62.4,29.93,SE,126,2.0,8.1,50,0.00,,,0.00,meteobridge,2013-08-06 18:16:00,
2013-08-06 14:21:00,82.9,64.0,29.93,SSE,161,2.0,2.9,53,0.00,,,0.00,meteobridge,2013-08-06 18:21:00,
2013-08-06 14:26:00,83.5,64.0,29.93,SSE,160,0.0,2.9,52,0.00,,,0.00,meteobridge,2013-08-06 18:26:00,
2013-08-06 14:31:00,83.5,62.2,29.92,SSE,152,0.9,6.0,49,0.00,,,0.00,meteobridge,2013-08-06 18:31:00,
2013-08-06 14:36:00,83.5,63.5,29.92,SSE,154,0.0,0.9,51,0.00,,,0.00,meteobridge,2013-08-06 18:36:00,
2013-08-06 14:41:00,84.0,65.7,29.92,SE,145,0.9,2.0,54,0.00,,,0.00,meteobridge,2013-08-06 18:41:00,
2013-08-06 14:46:00,83.8,63.9,29.93,SE,144,0.9,2.9,51,0.00,,,0.00,meteobridge,2013-08-06 18:46:00,
2013-08-06 14:51:00,82.9,62.4,29.93,SE,127,2.9,4.9,50,0.00,,,0.00,meteobridge,2013-08-06 18:51:00,
2013-08-06 14:56:00,82.6,63.1,29.93,SE,127,0.0,0.9,52,0.00,,,0.00,meteobridge,2013-08-06 18:56:00,
2013-08-06 15:01:00,82.4,63.0,29.93,SE,127,0.0,2.9,52,0.00,,,0.00,meteobridge,2013-08-06 19:01:00,
2013-08-06 15:06:00,82.6,62.1,29.93,South,182,2.0,6.0,50,0.00,,,0.00,meteobridge,2013-08-06 19:06:00,
2013-08-06 15:11:00,82.6,62.1,29.93,ESE,116,2.9,4.9,50,0.00,,,0.00,meteobridge,2013-08-06 19:11:00,
2013-08-06 15:17:00,82.4,62.4,29.93,SE,124,0.0,2.9,51,0.00,,,0.00,meteobridge,2013-08-06 19:17:00,
2013-08-06 15:22:00,82.2,63.9,29.93,SE,141,2.9,4.9,54,0.00,,,0.00,meteobridge,2013-08-06 19:22:00,
2013-08-06 15:27:00,82.0,63.7,29.93,SSE,148,0.0,6.0,54,0.00,,,0.00,meteobridge,2013-08-06 19:27:00,
2013-08-06 15:32:00,81.9,64.0,29.93,SSW,205,2.0,2.9,55,0.00,,,0.00,meteobridge,2013-08-06 19:32:00,
2013-08-06 15:37:00,82.0,64.8,29.93,SSW,205,0.0,0.9,56,0.00,,,0.00,meteobridge,2013-08-06 19:37:00,
2013-08-06 15:42:00,82.0,64.2,29.93,SSE,160,0.9,2.9,55,0.00,,,0.00,meteobridge,2013-08-06 19:42:00,
2013-08-06 15:47:00,82.4,65.1,29.93,SSE,164,0.0,2.9,56,0.00,,,0.00,meteobridge,2013-08-06 19:47:00,
2013-08-06 15:52:00,82.4,65.1,29.93,SE,145,2.0,2.0,56,0.00,,,0.00,meteobridge,2013-08-06 19:52:00,
2013-08-06 15:57:00,82.6,64.8,29.93,SE,145,0.0,0.9,55,0.00,,,0.00,meteobridge,2013-08-06 19:57:00,
2013-08-06 16:02:00,82.8,64.9,29.93,SE,144,0.0,2.9,55,0.00,,,0.00,meteobridge,2013-08-06 20:02:00,
2013-08-06 16:07:00,82.4,64.0,29.93,SW,222,2.0,2.9,54,0.00,,,0.00,meteobridge,2013-08-06 20:07:00,
2013-08-06 16:12:00,82.4,64.6,29.93,SW,223,0.0,0.0,55,0.00,,,0.00,meteobridge,2013-08-06 20:12:00,
2013-08-06 16:17:00,82.2,64.9,29.92,SSW,196,0.9,4.0,56,0.00,,,0.00,meteobridge,2013-08-06 20:17:00,
2013-08-06 16:22:00,82.0,64.8,29.92,SSW,196,2.0,2.0,56,0.00,,,0.00,meteobridge,2013-08-06 20:22:00,
2013-08-06 16:28:00,82.4,63.5,29.92,SSW,196,0.0,0.0,53,0.00,,,0.00,meteobridge,2013-08-06 20:28:00,
2013-08-06 16:33:00,82.8,63.3,29.92,SSE,168,0.0,2.9,52,0.00,,,0.00,meteobridge,2013-08-06 20:33:00,
2013-08-06 16:38:00,82.6,63.7,29.92,SSE,168,0.0,2.9,53,0.00,,,0.00,meteobridge,2013-08-06 20:38:00,
2013-08-06 16:43:00,82.8,65.5,29.92,SSE,168,0.0,0.0,56,0.00,,,0.00,meteobridge,2013-08-06 20:43:00,
2013-08-06 16:48:00,82.9,64.6,29.92,SSE,168,2.9,2.9,54,0.00,,,0.00,meteobridge,2013-08-06 20:48:00,
2013-08-06 16:53:00,82.9,64.0,29.92,SSE,168,0.0,2.9,53,0.00,,,0.00,meteobridge,2013-08-06 20:53:00,
2013-08-06 16:58:00,83.5,64.6,29.92,SSE,168,0.0,0.9,53,0.00,,,0.00,meteobridge,2013-08-06 20:58:00,
2013-08-06 17:04:00,83.5,65.7,29.92,SSE,168,0.0,0.9,55,0.00,,,0.00,meteobridge,2013-08-06 21:04:00,
2013-08-06 17:09:00,82.9,65.1,29.92,SSE,168,0.0,2.0,55,0.00,,,0.00,meteobridge,2013-08-06 21:09:00,
2013-08-06 17:14:00,82.9,65.7,29.92,ESE,112,2.0,4.0,56,0.00,,,0.00,meteobridge,2013-08-06 21:14:00,
2013-08-06 17:19:00,82.9,65.7,29.93,SW,233,0.9,2.9,56,0.00,,,0.00,meteobridge,2013-08-06 21:19:00,
2013-08-06 17:24:00,83.7,66.4,29.93,SW,236,0.0,2.0,56,0.00,,,0.00,meteobridge,2013-08-06 21:24:00,
2013-08-06 17:29:00,83.7,66.4,29.93,SSE,148,0.0,0.9,56,0.00,,,0.00,meteobridge,2013-08-06 21:29:00,
2013-08-06 17:34:00,83.7,66.7,29.92,SW,223,6.0,6.0,57,0.00,,,0.00,meteobridge,2013-08-06 21:34:00,
2013-08-06 17:39:00,83.5,66.6,29.92,SW,223,0.0,0.0,57,0.00,,,0.00,meteobridge,2013-08-06 21:39:00,
2013-08-06 17:44:00,83.1,66.4,29.92,SW,223,0.0,0.0,57,0.00,,,0.00,meteobridge,2013-08-06 21:44:00,
2013-08-06 17:49:00,82.8,66.6,29.92,SSW,200,0.0,0.0,58,0.00,,,0.00,meteobridge,2013-08-06 21:49:00,
2013-08-06 17:54:00,82.8,66.6,29.92,SSW,200,0.0,0.9,58,0.00,,,0.00,meteobridge,2013-08-06 21:54:00,
2013-08-06 17:59:00,82.6,66.4,29.92,SSW,200,0.0,2.9,58,0.00,,,0.00,meteobridge,2013-08-06 21:59:00,
2013-08-06 18:04:00,82.6,66.4,29.92,SSW,200,0.0,0.0,58,0.00,,,0.00,meteobridge,2013-08-06 22:04:00,
2013-08-06 18:09:00,83.1,66.7,29.92,SSW,200,0.0,0.0,58,0.00,,,0.00,meteobridge,2013-08-06 22:09:00,
2013-08-06 18:14:00,82.9,66.6,29.92,SSW,196,0.0,0.9,58,0.00,,,0.00,meteobridge,2013-08-06 22:14:00,
2013-08-06 18:19:00,82.8,66.6,29.92,SSW,196,0.0,2.0,58,0.00,,,0.00,meteobridge,2013-08-06 22:19:00,
2013-08-06 18:24:00,83.5,66.6,29.92,SSW,213,0.9,0.9,57,0.00,,,0.00,meteobridge,2013-08-06 22:24:00,
2013-08-06 18:30:00,83.5,66.6,29.92,South,189,0.0,0.0,57,0.00,,,0.00,meteobridge,2013-08-06 22:30:00,
2013-08-06 18:35:00,82.9,66.6,29.92,South,189,2.9,2.9,58,0.00,,,0.00,meteobridge,2013-08-06 22:35:00,
2013-08-06 18:40:00,82.9,66.6,29.92,SSW,196,2.0,4.0,58,0.00,,,0.00,meteobridge,2013-08-06 22:40:00,
2013-08-06 18:45:00,82.8,66.6,29.91,South,191,0.0,4.0,58,0.00,,,0.00,meteobridge,2013-08-06 22:45:00,
2013-08-06 18:50:00,82.8,66.9,29.91,South,188,0.0,2.0,59,0.00,,,0.00,meteobridge,2013-08-06 22:50:00,
2013-08-06 18:55:00,82.6,66.7,29.91,South,188,0.0,0.0,59,0.00,,,0.00,meteobridge,2013-08-06 22:55:00,
2013-08-06 19:00:00,82.4,67.1,29.91,South,189,0.0,0.9,60,0.00,,,0.00,meteobridge,2013-08-06 23:00:00,
2013-08-06 19:06:00,82.2,67.5,29.91,South,189,0.0,0.9,61,0.00,,,0.00,meteobridge,2013-08-06 23:06:00,
2013-08-06 19:11:00,81.9,67.1,29.91,South,189,0.0,0.9,61,0.00,,,0.00,meteobridge,2013-08-06 23:11:00,
2013-08-06 19:16:00,81.7,67.5,29.92,South,184,0.0,0.0,62,0.00,,,0.00,meteobridge,2013-08-06 23:16:00,
2013-08-06 19:21:00,81.3,67.1,29.92,South,184,0.0,0.0,62,0.00,,,0.00,meteobridge,2013-08-06 23:21:00,
2013-08-06 19:26:00,81.1,66.9,29.92,South,184,2.9,2.9,62,0.00,,,0.00,meteobridge,2013-08-06 23:26:00,
2013-08-06 19:31:00,81.1,67.3,29.91,South,184,0.0,2.9,63,0.00,,,0.00,meteobridge,2013-08-06 23:31:00,
2013-08-06 19:37:00,81.0,67.1,29.91,South,184,0.0,0.0,63,0.00,,,0.00,meteobridge,2013-08-06 23:37:00,
2013-08-06 19:42:00,81.0,67.1,29.91,South,184,0.0,0.0,63,0.00,,,0.00,meteobridge,2013-08-06 23:42:00,
2013-08-06 19:47:00,80.8,66.9,29.91,South,184,0.0,2.0,63,0.00,,,0.00,meteobridge,2013-08-06 23:47:00,
2013-08-06 19:52:00,80.8,68.0,29.91,South,184,0.0,0.0,65,0.00,,,0.00,meteobridge,2013-08-06 23:52:00,
2013-08-06 19:57:00,80.4,67.6,29.91,South,184,0.0,0.9,65,0.00,,,0.00,meteobridge,2013-08-06 23:57:00,
2013-08-06 20:02:00,80.4,68.0,29.91,South,184,0.0,0.0,66,0.00,,,0.00,meteobridge,2013-08-07 00:02:00,
2013-08-06 20:07:00,80.2,67.8,29.91,South,184,0.0,0.0,66,0.00,,,0.00,meteobridge,2013-08-07 00:07:00,
2013-08-06 20:12:00,80.1,68.5,29.91,South,184,0.0,0.0,68,0.00,,,0.00,meteobridge,2013-08-07 00:12:00,
2013-08-06 20:17:00,79.5,68.9,29.91,South,184,0.0,0.0,70,0.00,,,0.00,meteobridge,2013-08-07 00:17:00,
2013-08-06 20:22:00,78.8,69.1,29.91,South,184,0.0,0.0,72,0.00,,,0.00,meteobridge,2013-08-07 00:22:00,
2013-08-06 20:28:00,78.3,68.9,29.91,South,184,0.0,0.9,73,0.00,,,0.00,meteobridge,2013-08-07 00:28:00,
2013-08-06 20:33:00,77.7,69.1,29.91,South,184,0.0,0.0,75,0.00,,,0.00,meteobridge,2013-08-07 00:33:00,
2013-08-06 20:38:00,77.4,69.3,29.91,South,184,0.0,0.0,76,0.00,,,0.00,meteobridge,2013-08-07 00:38:00,
2013-08-06 20:43:00,77.0,69.3,29.91,South,184,0.0,0.0,77,0.00,,,0.00,meteobridge,2013-08-07 00:43:00,
2013-08-06 20:48:00,76.6,69.3,29.91,South,184,0.0,0.0,78,0.00,,,0.00,meteobridge,2013-08-07 00:48:00,
2013-08-06 20:53:00,76.1,69.1,29.91,South,184,0.0,0.0,79,0.00,,,0.00,meteobridge,2013-08-07 00:53:00,
2013-08-06 20:59:00,75.6,68.9,29.91,South,184,0.0,0.0,80,0.00,,,0.00,meteobridge,2013-08-07 00:59:00,
2013-08-06 21:04:00,75.4,69.4,29.91,South,184,0.0,0.0,82,0.00,,,0.00,meteobridge,2013-08-07 01:04:00,
2013-08-06 21:09:00,74.8,69.3,29.91,South,184,0.0,0.0,83,0.00,,,0.00,meteobridge,2013-08-07 01:09:00,
2013-08-06 21:14:00,74.7,69.4,29.91,South,184,0.0,0.0,84,0.00,,,0.00,meteobridge,2013-08-07 01:14:00,
2013-08-06 21:19:00,74.1,68.9,29.91,South,184,0.0,0.0,84,0.00,,,0.00,meteobridge,2013-08-07 01:19:00,
2013-08-06 21:24:00,73.9,69.1,29.91,South,184,0.0,0.0,85,0.00,,,0.00,meteobridge,2013-08-07 01:24:00,
2013-08-06 21:29:00,73.6,69.1,29.91,South,184,0.0,0.0,86,0.00,,,0.00,meteobridge,2013-08-07 01:29:00,
2013-08-06 21:35:00,73.2,69.1,29.91,South,184,0.0,0.0,87,0.00,,,0.00,meteobridge,2013-08-07 01:35:00,
2013-08-06 21:40:00,72.9,68.7,29.91,South,184,0.0,0.0,87,0.00,,,0.00,meteobridge,2013-08-07 01:40:00,
2013-08-06 21:45:00,72.7,68.5,29.92,South,184,0.0,0.0,87,0.00,,,0.00,meteobridge,2013-08-07 01:45:00,
2013-08-06 21:50:00,72.5,68.7,29.92,South,184,0.0,0.0,88,0.00,,,0.00,meteobridge,2013-08-07 01:50:00,
2013-08-06 21:55:00,72.1,68.7,29.92,South,184,0.0,0.0,89,0.00,,,0.00,meteobridge,2013-08-07 01:55:00,
2013-08-06 22:01:00,72.0,68.5,29.92,South,184,0.0,0.0,89,0.00,,,0.00,meteobridge,2013-08-07 02:01:00,
2013-08-06 22:06:00,71.8,68.7,29.92,South,184,0.0,0.0,90,0.00,,,0.00,meteobridge,2013-08-07 02:06:00,
2013-08-06 22:11:00,71.6,68.5,29.92,South,184,0.0,0.0,90,0.00,,,0.00,meteobridge,2013-08-07 02:11:00,
2013-08-06 22:16:00,71.4,68.7,29.92,South,184,0.0,0.0,91,0.00,,,0.00,meteobridge,2013-08-07 02:16:00,
2013-08-06 22:21:00,71.2,68.5,29.92,South,184,0.0,0.0,91,0.00,,,0.00,meteobridge,2013-08-07 02:21:00,
2013-08-06 22:26:00,71.1,68.4,29.92,South,184,0.0,0.0,91,0.00,,,0.00,meteobridge,2013-08-07 02:26:00,
2013-08-06 22:31:00,70.9,68.4,29.92,South,184,0.0,0.0,92,0.00,,,0.00,meteobridge,2013-08-07 02:31:00,
2013-08-06 22:36:00,70.9,68.4,29.92,South,184,0.0,0.0,92,0.00,,,0.00,meteobridge,2013-08-07 02:36:00,
2013-08-06 22:42:00,70.5,68.0,29.92,South,184,0.0,0.9,92,0.00,,,0.00,meteobridge,2013-08-07 02:42:00,
2013-08-06 22:47:00,70.3,68.2,29.92,South,184,0.0,0.0,93,0.00,,,0.00,meteobridge,2013-08-07 02:47:00,
2013-08-06 22:52:00,70.3,68.2,29.92,South,184,0.0,0.0,93,0.00,,,0.00,meteobridge,2013-08-07 02:52:00,
2013-08-06 22:57:00,70.2,68.0,29.92,South,184,0.0,0.0,93,0.00,,,0.00,meteobridge,2013-08-07 02:57:00,
2013-08-06 23:02:00,70.2,68.0,29.92,South,184,0.0,0.0,93,0.00,,,0.00,meteobridge,2013-08-07 03:02:00,
2013-08-06 23:07:00,70.0,67.8,29.92,South,184,0.0,0.0,93,0.00,,,0.00,meteobridge,2013-08-07 03:07:00,
2013-08-06 23:12:00,69.8,67.6,29.92,South,184,0.0,0.0,93,0.00,,,0.00,meteobridge,2013-08-07 03:12:00,
2013-08-06 23:17:00,69.8,68.0,29.92,South,184,0.0,0.0,94,0.00,,,0.00,meteobridge,2013-08-07 03:17:00,
2013-08-06 23:22:00,69.6,67.8,29.92,South,184,0.0,0.0,94,0.00,,,0.00,meteobridge,2013-08-07 03:22:00,
2013-08-06 23:28:00,69.6,67.8,29.92,South,184,0.0,0.0,94,0.00,,,0.00,meteobridge,2013-08-07 03:28:00,
2013-08-06 23:33:00,69.4,67.6,29.92,South,184,0.0,0.0,94,0.00,,,0.00,meteobridge,2013-08-07 03:33:00,
2013-08-06 23:38:00,69.4,67.6,29.92,South,184,0.0,0.0,94,0.00,,,0.00,meteobridge,2013-08-07 03:38:00,
2013-08-06 23:43:00,69.3,67.5,29.92,South,184,0.0,0.0,94,0.00,,,0.00,meteobridge,2013-08-07 03:43:00,
2013-08-06 23:48:00,69.1,67.3,29.92,South,184,0.0,0.0,94,0.00,,,0.00,meteobridge,2013-08-07 03:48:00,
2013-08-06 23:53:00,69.1,67.6,29.92,South,184,0.0,0.0,95,0.00,,,0.00,meteobridge,2013-08-07 03:53:00,
2013-08-06 23:59:00,69.1,67.6,29.92,South,184,0.0,0.0,95,0.00,,,0.00,meteobridge,2013-08-07 03:59:00,